Regional Weather Roundup
Issued by NWS

Home | Current Version | Previous Version | Graphics & Text | Print | Product List | Glossary On
Versions: 1 2 3 4 5 6 7 8 9 10 11 12 13 14 15 16 17 18 19 20 21 22 23 24 25 26 27 28 29 30 31 32 33 34 35 36 37 38 39 40 41 42 43 44 45 46 47 48 49 50
000
ASUS43 KLOT 260600
RWRIL

ILLINOIS REGIONAL WEATHER ROUNDUP
NATIONAL WEATHER SERVICE CHICAGO/ROMEOVILLE IL
100 AM CDT SAT JUL 26 2014

NOTE: "FAIR" INDICATES FEW OR NO CLOUDS BELOW 12,000 FEET WITH NO
SIGNIFICANT WEATHER AND/OR OBSTRUCTIONS TO VISIBILITY.

* THESE STATIONS ARE NOT UNDER NWS QUALITY CONTROL. THEY ALSO MAY NOT
  REPORT WEATHER SUCH AS PRECIPITATION OR FOG.

ILZ001-002-007-009-015-016-024-260700-
NORTHWEST ILLINOIS

CITY           SKY/WX    TMP DP  RH WIND       PRES   REMARKS
MOLINE         CLOUDY    68  62  81 SE8       29.85F
6HR MIN TEMP:  68; 6HR MAX TEMP:  72;

STERLING*      CLOUDY    66  61  82 SE5       29.90S
$$

ILZ003-004-008-010-011-017-018-260700-
NORTH CENTRAL ILLINOIS

CITY           SKY/WX    TMP DP  RH WIND       PRES   REMARKS
ROCKFORD       CLOUDY    68  59  73 S7        29.93S
6HR MIN TEMP:  67; 6HR MAX TEMP:  70;

$$

ILZ005-006-012>014-019>023-260700-
NORTHEAST ILLINOIS

CITY           SKY/WX    TMP DP  RH WIND       PRES   REMARKS
CHICAGO-OHARE  CLOUDY    70  56  61 SW10      29.91F
6HR MIN TEMP:  69; 6HR MAX TEMP:  72;

CHICAGO-MIDWAY CLOUDY    72  60  66 SW8       29.91F
6HR MIN TEMP:  71; 6HR MAX TEMP:  75;

AURORA         CLOUDY    68  59  73 S5        29.92F
6HR MIN TEMP:  68; 6HR MAX TEMP:  71;

WAUKEGAN       PTCLDY    67  58  72 S9        29.90F
6HR MIN TEMP:  63; 6HR MAX TEMP:  71;

DUPAGE AIRPORT CLOUDY    68  59  73 S8        29.91F
6HR MIN TEMP:  68; 6HR MAX TEMP:  71;

WHEELING       CLEAR     69  59  70 S6        29.93S
6HR MIN TEMP:  69; 6HR MAX TEMP:  74;

NORTHERLY ISL    N/A     70  57  63 S10         N/A
$$

LMZ740>746-260700-
SOUTHERN LAKE MICHIGAN

STATION/POSITION SKY/WX   TEMP    WIND        PRES    VSBY  WAVE
                          AIR SEA DIR/SP/G                  HT/PER
                          (F)     (DEG/KT/KT) (MB)    (MI)  (FT/S)
SOUTHERN BUOY              64 61  180/  8/ 10 1013.2F         1
WAUKEGAN HARBOR            69     210/  8/ 10   N/A
HARRISON CRIB              69     190/ 11/ 12   N/A
BURNHAM HARBOR             71     230/  9/  9   N/A
CALUMET HARBOR             70     200/  6/  8 1012.2F
MICHIGAN CITY              65     100/  4/  5   N/A
MICHIGAN CITY 6N           66 68  160/  6/  6   N/A           1
ST. JOSEPH                 66 66  140/ 10/ 10   N/A           1/ 2
$$

ILZ025>027-034>036-040-047-049-050-058-095>099-260700-
WEST-CENTRAL ILLINOIS

CITY           SKY/WX    TMP DP  RH WIND       PRES   REMARKS
QUINCY         PTCLDY    70  65  84 SE6       29.85S
$$

ILZ028>032-037-038-041>044-048-051>054-059>061-260700-
CENTRAL ILLINOIS

CITY           SKY/WX    TMP DP  RH WIND       PRES   REMARKS
DECATUR        CLOUDY    69  62  78 S13       29.93F
PEORIA         CLOUDY    70  60  70 S10       29.89F
6HR MIN TEMP:  70; 6HR MAX TEMP:  73;

SPRINGFIELD    CLOUDY    71  62  73 S12       29.90F
6HR MIN TEMP:  69; 6HR MAX TEMP:  77;

TAYLORVILLE    NOT AVBL
$$

ILZ033-039-045-046-055>057-062-063-260700-
EAST-CENTRAL ILLINOIS

CITY           SKY/WX    TMP DP  RH WIND       PRES   REMARKS
CHAMPAIGN      CLOUDY    68  62  81 SE9       29.94F
MATTOON        CLOUDY    68  61  78 S10       29.94F
$$

ILZ079-100>102-260700-
SOUTHWEST ILLINOIS

CITY           SKY/WX    TMP DP  RH WIND       PRES   REMARKS
BELLEVILLE     CLEAR     66  65  99 E7        29.92F
CAHOKIA*       CLEAR     69  64  84 SE7       29.91F
$$

ILZ064>066-069>071-074>076-080>082-084>086-088>090-092>094-260700-
SOUTH-CENTRAL ILLINOIS

CITY           SKY/WX    TMP DP  RH WIND       PRES   REMARKS
CARBONDALE     CLEAR     65  62  90 SE5       29.97S
6HR MIN TEMP:  64; 6HR MAX TEMP:  76;

MT. VERNON     CLEAR     66  59  77 SE7       29.98F
$$

ILZ067-068-072-073-078-083-087-091-260700-
SOUTHEAST ILLINOIS

CITY           SKY/WX    TMP DP  RH WIND       PRES   REMARKS
LAWRENCEVILLE  PTCLDY    63  60  90 SE6       29.99F
$$

ABBREVIATIONS USED IN REMARKS
   TC - TEMPERATURE IN CELSIUS
  WCI - WIND CHILL INDEX
   HX - HEAT INDEX
  VSB - VISIBILITY
$$




USA.gov is the U.S. government's official web portal to all federal, state and local government web resources and services.